Simultaneous Nadir Overpasses (SNOs) Predictions

Prediction of SNOs between AQUA and GOES-15 Satellite Orbit:

Table of predicted SNOs for the next 14.0 days since TLE Epoch: 3/16/2017
Index Date Time (AQUA) AQUA Lat,Lon GOES-15 Lat,Lon Distance(km) Time Diff (sec)
1 03/17/2017 10:44:25 0.56,-137.10 0.03,-134.53 291.52 80
2 03/19/2017 10:32:16 -0.05,-134.15 0.02,-134.43 32.70 80
3 03/21/2017 10:20:07 -0.61,-131.19 0.03,-134.32 356.23 80
4 03/21/2017 22:41:31 -0.49,-136.38 -0.03,-134.33 234.01 80
5 03/23/2017 22:29:22 0.14,-133.43 -0.03,-134.21 88.90 80
6 03/25/2017 22:17:12 0.71,-130.47 -0.03,-134.09 411.27 80
7 03/26/2017 10:38:28 0.39,-135.63 0.04,-134.03 182.03 80
8 03/28/2017 10:26:19 -0.24,-132.68 0.03,-133.91 139.56 80
9 03/28/2017 22:47:43 -0.90,-137.87 -0.04,-133.90 451.21 80
10 03/30/2017 10:14:09 -0.82,-129.72 0.03,-133.78 460.39 80




NCC Satellite Simultaneous Nadir Overpasses (SNOs) Prediction Service
